Little Rock AFB, AR

7:59 PM CST on January 16, 2018 (GMT -0600)
Little Rock Air Force Base

Weather History for KLRF - July, 2013

Change the Weather History Date:

Monday, July 1, 2013

  Actual Average Record
Temperature  
Mean Temperature 75 °F -  
Max Temperature 86 °F 89 °F 102 °F (1980)
Min Temperature 65 °F 69 °F 62 °F (1976)
Cooling Degree Days 10    
Growing Degree Days 25 (Base 50)    
Moisture  
Dew Point 59 °F    
Average Humidity 60    
Maximum Humidity 82    
Minimum Humidity 40    
Precipitation  
Precipitation 0.00 in - - ()
Sea Level Pressure  
Sea Level Pressure 29.93 in    
Wind  
Wind Speed 5 mph (NNW)    
Max Wind Speed 13 mph    
Max Gust Speed 18 mph    
Visibility 10 miles    
Events      
Averages and records for this station are not official NWS values.
T = Trace of Precipitation, MM = Missing Value Source: NWS Daily Summary

Daily Weather History Graph

Daily Weather History Graph

Search for Another Location

Airport or City:

Trip Planner

Search our weather history database for the weather conditions in past years. The results will help you decide how hot, cold, wet, or windy it might be!

Date:

Astronomy

Jul. 01, 2013 Rise Set
Actual Time 5:58 AM CDT 8:26 PM CDT
Civil Twilight 5:29 AM CDT 8:55 PM CDT
Nautical Twilight 4:52 AM CDT 9:32 PM CDT
Astronomical Twilight 4:12 AM CDT 10:12 PM CDT
Moon 1:19 AM CDT (7/1) 2:49 PM CDT (7/1)
Length of Visible Light 15h 26m
Length of Day
14h 27m
Waning Crescent, 35% of the Moon is Illuminated
Jul 1
Waning Crescent
Jul 8
New
Jul 15
First Quarter
Jul 22
Full
Jul 29
Last Quarter

Hourly Weather History & Observations

Time (CDT) Temp. Heat Index Dew Point Humidity Pressure Visibility Wind Dir Wind Speed Gust Speed Precip Events Conditions
12:58 AM 69.8 °F - 60.1 °F 71% 29.88 in 10.0 mi NW 2.3 mph - N/A   Overcast
1:58 AM 66.2 °F - 60.1 °F 81% 29.89 in 10.0 mi West 4.6 mph - N/A   Clear
2:58 AM 66.4 °F - 59.9 °F 80% 29.89 in 10.0 mi WNW 2.3 mph - N/A   Partly Cloudy
3:58 AM 66.0 °F - 59.9 °F 81% 29.89 in 10.0 mi West 3.5 mph - N/A   Clear
4:58 AM 65.5 °F - 59.9 °F 82% 29.90 in 10.0 mi WNW 2.3 mph - N/A   Clear
5:58 AM 65.5 °F - 59.9 °F 82% 29.91 in 10.0 mi Variable 3.5 mph - N/A   Partly Cloudy
6:58 AM 66.2 °F - 60.3 °F 81% 29.92 in 10.0 mi NW 4.6 mph - N/A   Partly Cloudy
7:58 AM 70.5 °F - 60.8 °F 71% 29.92 in 10.0 mi NNW 8.1 mph - N/A   Clear
8:58 AM 73.6 °F - 61.5 °F 66% 29.94 in 10.0 mi NW 8.1 mph - N/A   Clear
9:58 AM 76.3 °F - 62.1 °F 61% 29.94 in 10.0 mi Variable 4.6 mph - N/A   Partly Cloudy
10:58 AM 80.6 °F 81.5 °F 60.8 °F 51% 29.94 in 10.0 mi NNW 8.1 mph - N/A   Mostly Cloudy
11:58 AM 81.7 °F 82.0 °F 59.4 °F 47% 29.94 in 9.0 mi North 12.7 mph - N/A   Scattered Clouds
12:41 PM 84.2 °F 83.8 °F 59.0 °F 42% 29.92 in 10.0 mi NNW 12.7 mph - N/A   Mostly Cloudy
12:58 PM 84.0 °F 83.6 °F 58.5 °F 42% 29.92 in 10.0 mi North 10.4 mph 18.4 mph N/A   Partly Cloudy
1:58 PM 84.7 °F 84.2 °F 58.8 °F 41% 29.92 in 10.0 mi North 8.1 mph 17.3 mph N/A   Scattered Clouds
2:58 PM 85.1 °F 84.4 °F 57.9 °F 40% 29.92 in 10.0 mi NNW 10.4 mph - N/A   Mostly Cloudy
3:58 PM 81.9 °F 81.9 °F 58.8 °F 45% 29.92 in 10.0 mi NE 5.8 mph - N/A   Overcast
4:58 PM 84.2 °F 83.5 °F 57.6 °F 40% 29.92 in 9.0 mi North 6.9 mph - N/A   Scattered Clouds
5:58 PM 82.9 °F 82.6 °F 57.7 °F 42% 29.92 in 9.0 mi NNE 8.1 mph - N/A   Partly Cloudy
6:58 PM 80.4 °F 80.9 °F 58.3 °F 47% 29.94 in 10.0 mi NNE 6.9 mph - N/A   Scattered Clouds
7:58 PM 77.2 °F - 60.4 °F 56% 29.95 in 10.0 mi NNE 3.5 mph - N/A   Clear
8:58 PM 75.2 °F - 59.9 °F 59% 29.96 in 10.0 mi North 3.5 mph - N/A   Partly Cloudy
9:58 PM 73.6 °F - 57.2 °F 56% 29.97 in 10.0 mi North 3.5 mph - N/A   Clear
10:58 PM 72.3 °F - 57.6 °F 60% 29.98 in 10.0 mi NNW 3.5 mph - N/A   Clear
11:58 PM 68.9 °F - 57.7 °F 68% 29.98 in 10.0 mi West 3.5 mph - N/A   Clear